Snowfall_Accumulation
0.0 0.0 0.0 0.0 0.0 0.0 0.0 0.0 0.0 0.0 0.0 0.0 0.0 0.0 0.0 0.0 0.0 0.0 0.0 0.0 0.0 0.0 0.0 0.0 0.0 0.0 0.0 0.0 0.0 0.0 0.0 0.1 0.3 0.0 0.0 0.0 0.0 0.0 0.0 0.0 0.0 0.0 0.0
0.0 0.0 0.0 0.0 0.0 0.0 0.0 0.0 0.0 0.0 0.0 0.0 0.0 0.0 0.0 0.0 0.0 0.0 0.0 0.0 0.0 0.0 0.0 0.0 0.0 0.0 0.0 0.0 0.0 0.0 0.0 0.0 0.4 0.0 0.0 0.0 0.0 0.0 0.0 0.0 0.0 0.0 0.0
0.0 0.0 0.0 0.0 0.0 0.0 0.0 0.0 0.0 0.0 0.0 0.0 0.0 0.0 0.0 0.0 0.0 0.0 0.0 0.0 0.0 0.0 0.0 0.0 0.0 0.0 0.0 0.0 0.0 0.0 0.0 0.0 0.1 0.3 0.0 0.0 0.0 0.0 0.0 0.0 0.0 0.0 0.0
0.0 0.0 0.0 0.0 0.0 0.0 0.0 0.0 0.0 0.0 0.0 0.0 0.0 0.0 0.0 0.0 0.0 0.0 0.0 0.0 0.0 0.0 0.0 0.0 0.0 0.0 0.1 0.0 0.0 0.0 0.0 0.0 0.1 0.1 0.0 0.1 0.0 0.0 0.0 0.0 0.0 0.0 0.5
0.0 0.0 0.0 0.0 0.0 0.0 0.0 0.0 0.0 0.0 0.0 0.0 0.1 0.0 0.1 0.1 0.0 0.1 0.0 0.0 0.0 0.0 0.0 0.0 0.0 nan nan nan 0.2 0.0 0.0 0.0 0.0 0.0 0.0 0.0 0.0 0.0 0.1 0.1 0.0 0.0 0.0
0.0 0.0 0.0 0.0 0.0 0.0 0.0 0.0 0.0 0.0 0.0 0.1 0.1 0.3 2.2 0.8 nan nan 0.1 0.1 0.1 0.1 0.2 0.1 0.0 0.0 0.0 nan nan nan nan 0.3 0.0 0.1 0.1 0.1 0.0 0.1 0.0 0.1 0.1 0.0 0.2
0.0 0.0 0.0 0.0 0.0 0.0 0.0 0.0 0.0 0.0 0.0 0.0 0.2 0.2 0.7 2.1 nan nan nan 0.5 0.6 1.6 1.4 0.5 0.4 0.4 nan 0.1 nan nan nan nan 0.2 0.2 0.2 1.0 0.3 0.8 0.1 0.0 0.0 0.2 0.4
0.0 0.0 0.0 0.0 0.0 0.0 0.0 0.0 0.0 0.0 0.0 0.0 0.0 0.0 0.0 0.1 nan nan nan 0.7 1.8 1.6 1.2 2.2 1.8 1.9 1.3 2.8 1.8 1.0 0.9 0.4 0.8 0.2 0.7 2.4 2.0 0.9 0.3 0.1 0.1 0.0 0.2
0.0 0.0 0.0 0.0 0.0 0.0 0.0 0.0 0.0 0.0 0.0 0.0 0.0 0.0 0.0 0.0 nan nan 0.0 0.1 0.1 1.6 2.2 2.8 2.2 2.2 nan nan 2.8 4.0 4.3 3.5 nan nan nan nan nan nan nan 0.6 1.9 0.4 0.8
0.0 0.0 0.0 0.0 0.0 0.0 0.0 0.0 0.0 0.0 0.0 0.0 0.0 0.0 nan 0.0 nan nan nan 0.0 0.0 0.3 0.0 0.1 nan 0.7 nan nan 0.9 1.5 3.3 3.9 4.3 3.3 1.3 0.5 nan nan nan 1.5 3.3 5.0 4.2
0.1 0.0 0.0 0.0 0.0 0.0 0.0 0.0 0.0 0.0 0.0 0.0 0.0 0.0 0.0 0.0 0.0 nan nan 0.0 0.2 0.3 0.4 0.5 0.4 nan nan nan nan 0.3 1.4 1.4 2.0 1.8 1.8 3.2 2.8 1.2 1.7 1.6 1.3 2.4 4.0
1.5 1.0 0.2 0.1 0.0 0.0 0.0 0.0 0.0 0.0 0.0 0.0 0.0 0.2 0.3 0.0 nan nan nan nan nan 0.4 1.4 1.8 1.8 nan nan nan 1.4 nan nan 0.9 1.9 2.1 2.7 3.6 4.4 5.1 3.9 3.3 1.4 1.3 2.0
1.4 3.0 2.3 1.0 1.5 0.1 0.1 0.2 0.6 0.0 0.5 0.2 1.4 2.0 2.0 1.1 1.6 nan nan nan nan 2.3 2.8 5.0 nan nan nan 1.3 nan nan 3.0 4.9 6.0 7.6 6.7 5.8 4.1 2.2 0.7 0.8 0.2 0.1 0.7
0.5 0.4 0.9 2.3 0.8 1.8 1.5 1.6 2.0 2.6 3.0 3.5 4.0 5.7 4.5 5.1 3.4 3.8 6.2 6.1 nan 7.5 3.3 10.2 4.0 5.8 3.8 5.6 7.3 7.9 6.1 6.2 6.1 5.0 4.2 3.0 1.8 1.3 1.4 1.0 1.8 1.3 2.0
0.0 0.0 0.0 0.2 0.3 1.0 2.1 5.2 4.7 6.2 6.0 7.0 6.9 6.3 10.2 12.5 12.7 9.5 8.5 8.9 9.5 7.5 7.9 11.3 11.4 9.5 8.7 7.0 5.8 6.0 4.1 2.8 3.2 3.7 3.9 3.3 2.7 2.3 2.9 1.2 1.2 1.5 2.5
0.0 0.2 0.4 0.4 0.6 0.9 1.4 2.8 nan nan nan nan nan 6.2 12.6 nan nan nan nan nan nan nan 8.6 9.6 13.0 13.0 10.0 7.0 6.6 5.4 3.8 4.3 4.1 3.6 5.0 4.2 4.8 5.5 5.2 4.1 3.8 4.4 4.7
0.1 0.0 0.6 0.5 0.8 1.2 1.4 2.0 5.5 9.1 nan nan nan nan nan nan nan nan nan nan nan nan 12.9 14.6 18.1 17.7 11.5 6.6 6.3 7.1 8.0 6.3 4.4 5.7 6.7 8.9 9.5 8.7 10.2 7.7 7.7 6.6 6.0
2.0 0.0 2.1 2.9 3.3 4.0 4.7 5.5 5.8 7.5 11.3 10.1 nan nan nan nan nan nan nan nan 13.0 nan 12.6 14.5 15.3 13.3 10.4 9.8 10.3 10.2 8.7 9.7 10.0 9.0 9.2 10.8 11.9 9.8 9.4 7.6 7.6 9.9 7.2
0.5 1.4 1.7 1.9 1.8 1.4 1.5 1.6 1.8 2.1 3.5 4.5 3.6 2.9 3.1 nan nan nan nan 6.4 9.9 9.9 10.5 12.0 13.1 10.9 11.0 10.2 14.9 15.4 17.8 16.5 15.7 17.7 12.9 13.2 20.2 9.0 9.9 8.5 8.8 6.4 5.7
0.7 0.0 0.6 1.1 1.3 1.3 1.1 1.3 1.2 1.3 1.3 1.8 2.2 3.3 2.2 1.7 8.8 15.6 9.5 14.4 11.8 6.8 7.2 6.0 7.0 7.4 9.7 9.0 14.9 20.6 18.4 18.0 15.2 12.9 18.9 23.3 21.6 13.3 13.8 12.5 13.2 12.9 8.7
1.0 0.9 0.1 0.8 0.9 0.9 1.1 1.2 1.1 1.6 1.9 1.6 3.0 5.1 1.4 2.2 5.0 5.1 5.0 7.4 6.1 5.4 8.8 4.6 6.6 8.6 8.4 9.7 6.3 11.6 7.0 20.2 11.2 11.3 10.8 11.6 32.7 16.3 10.1 10.2 11.1 9.1 7.4
0.9 0.8 0.9 1.3 0.9 1.7 1.2 0.8 1.3 1.2 1.1 1.6 2.4 2.0 3.6 6.2 3.5 3.6 3.3 6.4 11.0 4.3 3.9 5.4 5.1 5.1 5.5 6.3 7.5 18.5 15.0 18.8 15.1 12.2 11.1 11.7 9.8 10.0 9.4 9.7 10.9 11.1 8.5
1.0 1.7 1.2 1.1 1.1 4.6 3.2 1.2 2.4 3.1 2.3 3.4 2.0 2.5 3.3 6.1 6.2 3.7 5.2 9.3 4.3 5.9 5.2 4.5 9.3 5.9 5.8 8.3 8.4 7.6 12.3 11.5 11.8 13.1 14.1 12.9 8.2 9.4 13.7 10.7 9.2 11.1 11.9
1.1 2.2 1.3 2.4 3.6 1.6 4.8 7.7 4.6 6.2 3.8 5.0 10.1 7.6 6.0 6.5 13.6 10.4 11.4 12.9 8.2 12.1 12.7 13.2 5.3 4.3 4.7 14.3 9.8 7.7 5.0 10.1 8.4 9.7 11.1 13.6 9.0 6.5 10.0 8.9 8.7 11.6 13.0
2.5 4.4 4.9 3.0 3.4 8.6 11.6 8.4 8.9 9.8 9.2 11.4 13.5 10.4 3.3 7.8 6.1 15.4 12.7 9.5 8.7 13.7 7.5 10.1 9.3 6.3 7.8 7.4 8.2 4.3 5.8 4.8 9.3 5.4 10.9 7.8 9.4 9.5 10.4 10.0 12.2 8.9 10.3
1.8 2.0 3.6 3.9 4.9 8.3 9.3 14.2 14.9 12.6 12.8 13.9 13.8 14.5 10.7 7.8 6.8 13.4 10.1 10.0 9.5 9.3 8.7 10.3 9.5 9.3 7.8 8.4 6.8 6.1 5.6 5.2 13.4 5.5 15.2 7.9 10.7 9.8 9.5 9.0 8.6 11.6 8.4
Water_Equivalent
0.00 0.00 0.00 0.00 0.00 0.00 0.00 0.00 0.00 0.00 0.00 0.00 0.00 0.00 0.00 0.00 0.00 0.00 0.00 0.00 0.00 0.00 0.00 0.00 0.00 0.00 0.00 0.00 0.00 0.00 0.00 0.02 0.06 0.00 0.00 0.00 0.00 0.00 0.00 0.00 0.00 0.00 0.00
0.00 0.00 0.00 0.00 0.00 0.00 0.00 0.00 0.00 0.00 0.00 0.00 0.00 0.00 0.00 0.00 0.00 0.00 0.00 0.00 0.00 0.00 0.00 0.00 0.00 0.00 0.00 0.00 0.00 0.00 0.00 0.00 0.08 0.01 0.00 0.00 0.00 0.00 0.00 0.00 0.00 0.00 0.00
0.00 0.00 0.00 0.00 0.00 0.00 0.00 0.00 0.00 0.00 0.00 0.00 0.00 0.00 0.00 0.00 0.00 0.00 0.00 0.00 0.00 0.00 0.00 0.00 0.00 0.00 0.00 0.00 0.00 0.00 0.00 0.00 0.02 0.05 0.01 0.00 0.00 0.00 0.00 0.00 0.00 0.00 0.00
0.00 0.01 0.01 0.00 0.00 0.00 0.00 0.00 0.00 0.00 0.00 0.01 0.02 0.01 0.01 0.00 0.00 0.00 0.00 0.00 0.00 0.00 0.00 0.00 0.00 0.01 0.01 0.00 0.00 0.00 0.00 0.01 0.01 0.02 0.01 0.01 0.00 0.00 0.00 0.00 0.00 0.00 0.13
0.01 0.00 0.00 0.00 0.00 0.00 0.00 0.00 0.01 0.00 0.00 0.01 0.02 0.02 0.02 0.02 0.00 0.02 0.00 0.00 0.01 0.00 0.00 0.00 0.01 nan nan nan 0.03 0.01 0.00 0.00 0.00 0.00 0.00 0.00 0.00 0.00 0.02 0.01 0.00 0.00 0.00
0.00 0.00 0.00 0.00 0.00 0.00 0.00 0.00 0.00 0.00 0.01 0.02 0.03 0.08 0.58 0.27 nan nan 0.03 0.04 0.02 0.02 0.05 0.02 0.00 0.01 0.01 nan nan nan nan 0.05 0.00 0.01 0.02 0.02 0.00 0.02 0.00 0.01 0.01 0.00 0.03
0.00 0.00 0.00 0.00 0.00 0.00 0.00 0.00 0.00 0.00 0.00 0.01 0.05 0.04 0.17 0.54 nan nan nan 0.14 0.17 0.38 0.35 0.13 0.08 0.09 nan 0.03 nan nan nan nan 0.05 0.04 0.04 0.15 0.05 0.12 0.02 0.00 0.00 0.03 0.07
0.00 0.00 0.00 0.00 0.00 0.00 0.00 0.00 0.00 0.00 0.00 0.00 0.00 0.00 0.01 0.02 nan nan nan 0.18 0.44 0.41 0.30 0.54 0.40 0.43 0.26 0.52 0.34 0.20 0.17 0.08 0.16 0.03 0.13 0.46 0.45 0.17 0.05 0.02 0.01 0.00 0.06
0.00 0.00 0.00 0.00 0.00 0.00 0.00 0.00 0.00 0.00 0.00 0.00 0.00 0.00 0.00 0.00 nan nan 0.00 0.01 0.03 0.36 0.49 0.60 0.48 0.49 nan nan 0.49 0.65 0.76 0.65 nan nan nan nan nan nan nan 0.14 0.38 0.13 0.27
0.00 0.00 0.00 0.00 0.00 0.00 0.00 0.00 0.00 0.00 0.00 0.00 0.00 0.00 nan 0.00 nan nan nan 0.00 0.00 0.09 0.01 0.02 nan 0.14 nan nan 0.19 0.25 0.47 0.56 0.82 0.72 0.30 0.12 nan nan nan 0.27 0.57 0.77 0.83
0.04 0.00 0.00 0.00 0.00 0.00 0.00 0.00 0.00 0.00 0.00 0.00 0.00 0.00 0.00 0.00 0.00 nan nan 0.01 0.06 0.10 0.11 0.13 0.11 nan nan nan nan 0.06 0.20 0.23 0.42 0.37 0.41 0.80 0.72 0.29 0.41 0.41 0.31 0.52 0.73
0.57 0.32 0.07 0.04 0.00 0.00 0.00 0.00 0.00 0.00 0.00 0.00 0.01 0.06 0.11 0.00 nan nan nan nan nan 0.13 0.35 0.46 0.53 nan nan nan 0.34 nan nan 0.28 0.55 0.57 0.66 0.78 0.83 0.91 0.80 0.77 0.35 0.34 0.56
0.43 0.81 0.66 0.29 0.45 0.03 0.03 0.04 0.17 0.01 0.13 0.05 0.33 0.47 0.49 0.33 0.44 nan nan nan nan 0.61 0.77 1.23 nan nan nan 0.44 nan nan 0.99 1.15 1.37 1.59 1.25 1.04 0.75 0.44 0.14 0.19 0.04 0.03 0.19
0.15 0.10 0.24 0.56 0.23 0.56 0.48 0.48 0.52 0.58 0.67 0.83 0.90 1.18 0.98 1.09 0.71 0.83 1.32 1.48 nan 1.83 0.95 2.51 1.33 1.54 1.24 1.61 1.84 1.71 1.34 1.38 1.25 0.94 0.70 0.53 0.37 0.31 0.31 0.25 0.43 0.32 0.47
0.00 0.00 0.00 0.06 0.07 0.27 0.61 1.37 1.30 1.63 1.36 1.46 1.42 1.35 2.07 2.51 2.64 2.27 2.04 2.17 2.26 1.72 2.00 2.42 2.20 1.74 1.51 1.16 0.95 0.98 0.72 0.52 0.60 0.69 0.69 0.57 0.49 0.45 0.55 0.29 0.29 0.33 0.53
0.00 0.05 0.12 0.11 0.17 0.25 0.37 0.69 nan nan nan nan nan 1.66 3.35 nan nan nan nan nan nan nan 1.66 1.60 2.01 2.02 1.45 1.05 1.02 0.86 0.65 0.85 0.71 0.68 0.94 0.76 0.80 0.89 0.86 0.75 0.68 0.75 0.77
0.02 0.01 0.19 0.15 0.23 0.30 0.33 0.46 1.12 1.97 nan nan nan nan nan nan nan nan nan nan nan nan 2.10 2.08 2.55 2.54 1.74 1.05 0.98 1.08 1.19 1.05 0.71 0.96 1.12 1.37 1.45 1.33 1.57 1.16 1.19 1.00 0.88
0.52 0.00 0.63 0.86 0.92 1.09 1.20 1.34 1.32 1.54 2.03 1.81 nan nan nan nan nan nan nan nan 1.76 nan 1.69 1.96 2.24 2.10 1.67 1.46 1.50 1.43 1.29 1.51 1.55 1.45 1.45 1.69 1.87 1.48 1.46 1.15 1.13 1.44 1.06
0.14 0.37 0.45 0.48 0.47 0.37 0.40 0.42 0.43 0.49 0.71 0.82 0.66 0.65 0.88 nan nan nan nan 0.91 1.19 1.15 1.26 1.31 1.61 1.37 1.46 1.36 2.13 2.27 2.62 2.44 2.43 2.77 2.01 2.10 3.49 1.42 1.53 1.34 1.37 1.37 1.25
0.20 0.01 0.17 0.31 0.33 0.33 0.29 0.33 0.28 0.29 0.28 0.37 0.41 0.57 0.37 0.34 1.34 2.34 1.51 2.35 1.67 0.88 0.96 0.76 0.88 0.94 1.21 1.15 2.01 2.99 2.69 2.65 2.11 1.81 2.79 3.81 3.57 1.98 1.91 1.71 1.89 1.85 1.16
0.24 0.24 0.03 0.21 0.22 0.22 0.27 0.28 0.24 0.34 0.40 0.32 0.60 1.03 0.45 0.40 0.84 0.83 0.74 1.09 0.85 0.74 1.26 0.63 0.92 1.20 1.15 1.37 0.85 1.53 0.93 3.12 1.45 1.50 1.43 1.56 5.75 2.13 1.36 1.39 1.53 1.22 0.95
0.21 0.19 0.22 0.31 0.23 0.40 0.28 0.21 0.30 0.27 0.27 0.35 0.49 0.44 1.18 1.07 0.59 0.59 0.55 1.12 2.04 0.69 0.59 0.87 0.74 0.71 0.75 0.86 1.00 2.82 2.01 2.67 2.20 1.70 1.49 1.50 1.31 1.41 1.26 1.31 1.47 1.50 1.13
0.26 0.44 0.29 0.23 0.25 1.48 0.73 0.28 0.52 0.69 0.52 0.74 0.42 0.48 0.59 1.08 1.08 0.62 0.90 1.76 0.75 1.04 0.92 0.76 1.64 0.89 0.93 1.34 1.36 1.08 1.53 1.37 1.52 1.77 1.90 1.84 1.10 1.26 1.95 1.46 1.24 1.41 1.39
0.28 0.59 0.33 0.62 0.88 0.38 1.09 1.68 0.96 2.03 0.77 1.03 2.05 1.49 1.14 1.22 2.73 2.03 2.20 2.75 1.62 2.37 2.39 2.38 0.86 0.67 0.71 2.43 1.54 1.22 0.77 1.45 1.17 1.21 1.49 1.72 1.20 1.16 1.44 1.21 1.21 1.36 1.50
0.69 1.17 1.27 0.74 0.82 1.96 2.60 1.85 1.78 2.11 1.93 2.41 2.77 2.07 0.63 1.56 1.16 3.27 2.51 1.77 1.52 2.57 1.32 1.77 1.49 1.01 1.19 1.03 0.97 0.50 0.87 1.58 1.55 1.79 1.29 0.95 1.23 1.17 1.22 1.19 1.54 1.16 1.22
0.49 0.57 0.89 0.93 1.10 1.88 1.95 2.90 2.94 2.48 2.45 2.83 2.85 2.96 2.11 1.47 1.31 2.76 1.89 1.76 1.55 1.49 1.42 1.59 1.47 1.20 0.97 1.01 0.71 1.81 1.85 1.72 1.74 1.81 1.89 1.02 1.34 1.29 1.27 1.16 1.08 1.37 0.93
SL_Ratio
nan nan nan nan nan nan nan nan nan nan nan nan nan nan nan nan nan nan nan nan nan nan nan nan nan nan nan nan nan nan 3.3 4.6 5.4 nan nan nan nan nan nan nan nan nan nan
nan nan nan nan nan nan nan nan nan nan nan nan nan nan nan nan nan nan nan nan nan nan nan nan nan nan nan nan nan nan 5.0 3.3 4.9 5.2 nan nan nan nan nan nan nan nan nan
nan nan nan nan nan nan nan nan nan nan nan nan nan nan nan nan nan nan nan nan nan nan nan nan nan nan nan nan nan 5.0 5.0 5.6 4.7 5.0 4.7 nan nan nan nan nan nan nan nan
3.3 2.6 3.0 2.5 nan nan nan nan 2.9 nan 5.0 2.7 2.4 2.7 3.0 2.5 3.3 2.5 nan nan nan nan nan nan nan 5.2 5.7 5.0 nan nan nan 5.3 5.3 5.3 5.0 4.5 4.4 nan nan nan 0.0 nan 4.3
2.5 3.3 3.6 nan 5.0 nan nan nan 2.7 2.7 3.6 3.3 3.2 3.1 3.2 3.2 3.3 3.3 3.0 5.0 3.7 nan 5.0 nan 4.7 nan nan nan 5.7 5.6 0.0 nan nan nan nan nan nan 5.0 6.1 6.0 5.0 10.0 nan
nan nan nan nan nan nan nan nan nan 3.3 3.5 4.0 4.3 4.0 3.8 3.0 nan nan 3.3 3.5 3.6 3.9 4.4 4.1 4.3 4.4 4.2 nan nan nan nan 6.3 6.4 6.3 5.5 6.2 5.0 6.3 5.0 6.6 6.6 5.6 5.7
nan nan nan nan nan nan nan nan nan nan nan 3.8 3.7 4.0 4.2 3.9 nan nan nan 3.5 3.7 4.2 4.1 4.2 4.4 4.5 nan 4.5 nan nan nan nan 3.0 5.7 6.6 6.8 6.3 6.9 5.8 nan nan 4.7 5.0
nan nan nan nan nan nan nan nan nan nan nan nan nan nan 3.1 3.6 nan nan nan 3.7 4.1 4.0 3.9 4.1 4.5 4.4 4.9 5.4 5.3 4.9 5.1 5.1 5.0 5.0 5.1 5.3 4.4 4.9 5.4 5.8 5.6 nan 2.8
nan nan nan nan nan nan nan nan nan nan nan nan nan nan nan nan nan nan nan 4.0 3.9 4.4 4.4 4.7 4.5 4.6 nan nan 5.7 6.2 5.7 5.4 nan nan nan nan nan nan nan 4.3 5.0 3.3 3.0
nan nan nan nan nan nan nan nan nan nan nan nan nan nan nan nan nan nan nan nan nan 3.4 3.8 4.1 nan 5.0 nan nan 5.0 6.0 7.2 6.9 5.2 4.6 4.4 4.1 nan nan nan 5.4 5.8 6.5 5.0
2.8 nan nan nan nan nan nan nan 0.0 nan 5.0 nan nan nan nan nan nan nan nan 2.5 3.2 3.4 3.6 3.9 3.8 nan nan nan nan 5.1 7.3 5.9 4.8 5.1 4.5 4.0 3.9 4.0 4.1 4.1 4.1 4.6 5.5
2.7 3.1 3.5 3.4 3.0 nan 3.3 6.7 3.3 5.0 nan nan 3.8 3.3 3.1 nan nan nan nan nan nan 3.4 4.1 3.8 3.4 nan nan nan 4.1 nan nan 3.2 3.4 3.6 4.1 4.6 5.3 5.6 4.8 4.2 4.0 3.9 3.6
3.3 3.7 3.4 3.4 3.3 3.4 4.1 4.0 3.8 4.0 3.8 4.0 4.2 4.2 4.2 3.4 3.6 nan nan nan nan 3.7 3.6 4.0 nan nan nan 3.0 nan nan 3.0 4.3 4.4 4.8 5.3 5.6 5.5 5.0 4.6 4.4 4.2 3.9 3.8
3.4 3.6 3.6 4.0 3.4 3.3 3.1 3.3 3.9 4.5 4.5 4.2 4.4 4.8 4.6 4.7 4.8 4.6 4.7 4.1 nan 4.1 3.5 4.0 3.0 3.8 3.0 3.5 4.0 4.6 4.5 4.5 4.9 5.3 5.9 5.6 4.8 4.4 4.4 4.0 4.2 4.0 4.3
4.4 4.0 3.8 3.6 3.9 3.7 3.4 3.8 3.6 3.8 4.4 4.8 4.8 4.6 4.9 5.0 4.8 4.2 4.2 4.1 4.2 4.4 4.0 4.7 5.2 5.4 5.8 6.0 6.1 6.2 5.7 5.3 5.4 5.3 5.7 5.9 5.5 5.0 5.3 4.2 4.1 4.4 4.7
nan 3.6 3.6 3.6 3.8 3.8 3.8 4.0 nan nan nan nan nan 3.7 3.8 nan nan nan nan nan nan nan 5.2 6.0 6.5 6.5 6.9 6.7 6.4 6.2 5.8 5.0 5.8 5.3 5.3 5.5 6.0 6.2 6.1 5.5 5.5 5.8 6.1
3.8 3.4 3.2 3.4 3.6 4.0 4.2 4.4 4.9 4.6 nan nan nan nan nan nan nan nan nan nan nan nan 6.2 7.0 7.1 7.0 6.6 6.3 6.4 6.6 6.7 6.0 6.3 6.0 6.0 6.5 6.6 6.6 6.5 6.7 6.4 6.6 6.8
3.8 nan 3.3 3.4 3.5 3.7 3.9 4.1 4.4 4.8 5.6 5.6 nan nan nan nan nan nan nan nan 7.4 nan 7.4 7.4 6.8 6.3 6.2 6.7 6.8 7.1 6.7 6.5 6.4 6.2 6.4 6.4 6.4 6.6 6.4 6.6 6.7 6.9 6.8
3.3 3.7 3.9 3.9 3.9 3.7 3.8 3.9 4.1 4.3 4.9 5.6 5.4 4.4 3.6 nan nan nan nan 7.0 8.3 8.7 8.4 9.1 8.1 8.0 7.6 7.5 7.0 6.8 6.8 6.8 6.5 6.4 6.4 6.3 5.8 6.4 6.5 6.4 6.4 4.7 4.6
3.6 3.9 3.6 3.7 3.9 3.8 3.8 4.0 4.2 4.3 4.5 4.9 5.4 5.8 6.0 5.0 6.6 6.7 6.3 6.1 7.1 7.8 7.5 7.9 8.0 7.9 8.0 7.8 7.4 6.9 6.8 6.8 7.2 7.1 6.8 6.1 6.0 6.7 7.2 7.3 7.0 7.0 7.5
4.2 3.9 3.1 3.9 4.0 4.0 4.1 4.3 4.5 4.6 4.8 4.8 5.1 5.0 3.0 5.6 6.0 6.1 6.8 6.8 7.2 7.3 7.0 7.3 7.2 7.1 7.3 7.1 7.4 7.6 7.5 6.5 7.7 7.6 7.6 7.4 5.7 7.6 7.4 7.3 7.3 7.4 7.8
4.2 4.1 4.1 4.3 4.1 4.1 4.2 3.8 4.3 4.3 4.3 4.7 4.8 4.6 3.0 5.8 6.0 6.0 6.1 5.7 5.4 6.3 6.6 6.3 6.8 7.1 7.3 7.3 7.5 6.6 7.5 7.1 6.9 7.2 7.4 7.8 7.4 7.1 7.4 7.4 7.4 7.4 7.5
4.1 3.9 4.2 4.7 4.4 3.1 4.4 4.1 4.6 4.5 4.5 4.6 4.7 5.3 5.5 5.6 5.7 6.0 5.8 5.3 5.7 5.7 5.7 5.9 5.7 6.6 6.2 6.2 6.2 7.0 8.1 8.4 7.8 7.4 7.4 7.0 7.5 7.4 7.0 7.4 7.4 7.9 8.5
3.9 3.7 4.0 3.9 4.1 4.2 4.4 4.6 4.8 3.1 4.9 4.9 4.9 5.1 5.2 5.3 5.0 5.1 5.2 4.7 5.1 5.1 5.3 5.6 6.2 6.5 6.6 5.9 6.4 6.3 6.6 7.0 7.2 8.0 7.4 7.9 7.4 5.6 6.9 7.4 7.2 8.5 8.6
3.6 3.8 3.9 4.1 4.2 4.4 4.5 4.5 5.0 4.7 4.8 4.7 4.9 5.0 5.3 5.0 5.3 4.7 5.1 5.4 5.7 5.3 5.7 5.7 6.2 6.2 6.5 7.3 8.4 8.6 6.7 3.0 6.0 3.0 8.4 8.2 7.6 8.1 8.5 8.4 7.9 7.7 8.4
3.6 3.6 4.0 4.2 4.5 4.4 4.8 4.9 5.1 5.1 5.2 4.9 4.8 4.9 5.0 5.3 5.2 4.9 5.3 5.7 6.1 6.2 6.1 6.4 6.5 7.8 8.1 8.3 9.5 3.4 3.0 3.0 7.7 3.0 8.0 7.8 8.0 7.6 7.5 7.8 7.9 8.5 9.0